sat.trackr.live / text

‹ back to catalog

STARLINK-11669 [DTC]

NORAD 63548 · 2025-075A

PAYLOAD ACTIVE UNKNOWN

§ Identity

Operator
Country
US
Launch date
2025-04-13
Launch site
AFETR
Launch vehicle
Mass (kg)
RCS (m²)

Purposes: comms

External: N2YO · Heavens-Above · Gunter

§ Orbital elements

Epoch: 2026-09-19T17:55:16.195008Z

Period
91.67 min
Inclination
43.0003°
Eccentricity
0.0002184
Mean motion
15.70894531 rev/d
Perigee alt
354.9 km
Apogee alt
357.8 km
Semi-major
6,734.5 km
B*
9.9392e-4
RAAN
63.6541°
Arg perigee
264.3491°
Mean anomaly
95.7128°
Rev number
8,377

§ Raw data

STARLINK-11669 [DTC]1 63548U 25075A   26262.74671522  .00129390  00000+0  99392-3 0  99952 63548  43.0003  63.6541 0002184 264.3491  95.7128 15.70894531 83777

JSON: /api/v1/satellites/63548 · /tle

For live sub-satellite position, see the globe view (requires WebGL).

§ Visibility from observer

Set your observer location to see the next 7 days of passes ≥ 10°. The values pass through the URL so the page stays shareable.

No JS? Fill the form by hand. The geolocation button needs JavaScript.